GW3840 Weather Reports


Display with metric or nautical units.
time (UTC)temp
F
wind
direction
speed
MPH
gust
MPH
rain 1hr
in
rain 24hr
in
rain mn
in
humidity
%
barometer
mb
20260505050841 39 232 1.0 2.0 0.00 0.00 0.00 71 1008.6
20260505050340 39 243 1.0 3.0 0.00 0.00 0.00 70 1008.7
20260505041307 40 332 3.0 6.0 0.00 0.00 0.00 68 1008.7
20260505040804 40 282 0.0 2.0 0.00 0.00 0.00 68 1008.6
20260505040302 41 2 1.0 3.0 0.00 0.00 0.00 67 1008.6
20260505035758 41 337 3.0 7.0 0.00 0.00 0.00 65 1008.4
20260505035254 41 320 3.0 4.0 0.00 0.00 0.00 65 1008.8
20260505034751 41 342 3.0 7.0 0.00 0.00 0.00 64 1008.5
20260505034248 42 9 2.0 8.0 0.00 0.00 0.00 64 1008.5
20260505033744 42 333 4.0 9.0 0.00 0.00 0.00 63 1008.5
20260505033242 42 358 5.0 7.0 0.00 0.00 0.00 62 1008.6
20260505032740 42 18 4.0 7.0 0.00 0.00 0.00 61 1008.6
20260505032236 42 359 4.0 8.0 0.00 0.00 0.00 57 1008.5
20260505031733 43 23 2.0 4.0 0.00 0.00 0.00 55 1008.4
20260505031229 43 314 3.0 4.0 0.00 0.00 0.00 53 1008.1
20260505030726 43 286 4.0 6.0 0.00 0.00 0.00 53 1008.3
20260505030222 43 293 2.0 9.0 0.00 0.00 0.00 53 1008.2
20260505025718 43 304 4.0 7.0 0.00 0.00 0.00 52 1008.2
20260505025217 43 345 4.0 7.0 0.00 0.00 0.00 51 1007.8
20260505024715 43 337 4.0 6.0 0.00 0.00 0.00 51 1007.9
20260505024211 44 338 6.0 7.0 0.00 0.00 0.00 50 1007.9
20260505023709 44 306 5.0 7.0 0.00 0.00 0.00 50 1007.8
20260505023206 44 311 6.0 13.0 0.00 0.00 0.00 49 1007.9
20260505022704 44 336 5.0 6.0 0.00 0.00 0.00 49 1007.7
20260505022200 44 267 3.0 8.0 0.00 0.00 0.00 49 1007.8
20260505021657 44 307 7.0 11.0 0.00 0.00 0.00 49 1007.8
20260505021154 43 304 6.0 8.0 0.00 0.00 0.00 49 1007.6
20260505020649 44 315 4.0 4.0 0.00 0.00 0.00 51 1007.4
20260505020145 44 314 4.0 10.0 0.00 0.00 0.00 50 1007.5
20260505015643 44 350 5.0 9.0 0.00 0.00 0.00 50 1007.4
20260505015139 44 296 4.0 6.0 0.00 0.00 0.00 50 1007.2
20260505014636 44 274 4.0 10.0 0.00 0.00 0.00 50 1007.1
20260505014133 44 305 8.0 14.0 0.00 0.00 0.00 50 1007.1
20260505013631 44 298 9.0 11.0 0.00 0.00 0.00 51 1007.5
20260505013128 44 266 2.0 8.0 0.00 0.00 0.00 51 1007.1
20260505012626 44 265 5.0 8.0 0.00 0.00 0.00 51 1006.9
20260505012122 45 300 6.0 8.0 0.00 0.00 0.00 51 1006.9
20260505011618 45 12 4.0 8.0 0.00 0.00 0.00 50 1006.8
20260505011115 45 352 5.0 7.0 0.00 0.00 0.00 51 1006.8
20260505010611 45 284 11.0 16.0 0.00 0.00 0.00 49 1006.7
20260505010108 46 294 5.0 15.0 0.00 0.00 0.00 50 1006.7
20260505005604 46 1 6.0 13.0 0.00 0.00 0.00 49 1006.5
20260505005101 46 338 9.0 13.0 0.00 0.00 0.00 49 1006.5
20260505004558 46 312 3.0 14.0 0.00 0.00 0.00 51 1006.6
20260505004055 46 276 4.0 13.0 0.00 0.00 0.00 52 1006.4
20260505003552 47 327 4.0 7.0 0.00 0.00 0.00 51 1006.5
20260505003050 47 302 8.0 11.0 0.00 0.00 0.00 50 1006.3
20260505002549 47 334 6.0 15.0 0.00 0.00 0.00 50 1006.4
20260505002043 48 285 6.0 10.0 0.00 0.00 0.00 52 1006.5
20260505001540 47 49 6.0 13.0 0.00 0.00 0.00 51 1006.5
20260505001037 47 319 5.0 7.0 0.00 0.00 0.00 53 1006.5
20260505000535 47 337 6.0 13.0 0.00 0.00 0.00 50 1006.2
20260505000032 47 284 3.0 9.0 0.00 0.00 0.00 51 1006.3
20260504235529 48 293 3.0 11.0 0.00 0.00 0.00 49 1006.5
20260504235025 48 319 6.0 14.0 0.00 0.00 0.00 50 1006.3
20260504234522 47 307 9.0 17.0 0.00 0.00 0.00 50 1006.3
20260504234019 48 328 11.0 14.0 0.00 0.00 0.00 48 1006.4
20260504233515 47 273 8.0 17.0 0.00 0.00 0.00 49 1006.4
20260504233012 47 310 6.0 16.0 0.00 0.00 0.00 48 1006.3
20260504232509 47 273 10.0 16.0 0.00 0.00 0.00 48 1006.3
20260504232007 47 245 9.0 11.0 0.00 0.00 0.00 50 1006.3
20260504231503 47 321 11.0 14.0 0.00 0.00 0.00 49 1006.1
20260504230959 47 258 6.0 9.0 0.00 0.00 0.00 49 1006.2
20260504230455 47 337 8.0 9.0 0.00 0.00 0.00 49 1006.3
20260504225954 47 275 9.0 10.0 0.00 0.00 0.00 47 1006.2
20260504225451 47 281 11.0 16.0 0.00 0.00 0.00 46 1006.2
20260504224948 47 302 11.0 17.0 0.00 0.00 0.00 47 1006.3
20260504224444 47 271 7.0 11.0 0.00 0.00 0.00 47 1006.3
20260504223941 47 338 7.0 9.0 0.00 0.00 0.00 46 1006.3
20260504223437 47 320 10.0 14.0 0.00 0.00 0.00 47 1006.4
20260504222933 47 338 10.0 13.0 0.00 0.00 0.00 47 1006.3
20260504222431 47 297 8.0 13.0 0.00 0.00 0.00 47 1006.0
20260504221929 47 329 7.0 16.0 0.00 0.00 0.00 48 1006.1
20260504221425 47 32 6.0 10.0 0.00 0.00 0.00 48 1006.0
20260504220922 47 297 6.0 9.0 0.00 0.00 0.00 50 1006.1
20260504220419 47 306 11.0 16.0 0.00 0.00 0.00 48 1006.1
20260504215916 47 296 11.0 16.0 0.00 0.00 0.00 47 1006.1
20260504215413 48 280 8.0 10.0 0.00 0.00 0.00 46 1006.1
20260504214909 47 273 10.0 19.0 0.00 0.00 0.00 50 1006.0
20260504214406 46 299 11.0 13.0 0.00 0.00 0.00 51 1006.2
20260504213903 46 300 11.0 16.0 0.00 0.00 0.00 51 1006.0
20260504213358 46 318 9.0 13.0 0.00 0.00 0.00 52 1006.0
20260504212856 46 256 10.0 14.0 0.00 0.00 0.00 53 1005.9
20260504212351 46 307 9.0 13.0 0.00 0.00 0.00 52 1006.3
20260504211850 46 285 6.0 11.0 0.00 0.00 0.00 56 1005.9
20260504211346 46 7 5.0 13.0 0.00 0.00 0.00 53 1005.9
20260504210843 46 295 6.0 15.0 0.00 0.00 0.00 52 1006.0
20260504210340 47 295 6.0 17.0 0.00 0.00 0.00 53 1005.9
20260504205837 47 308 6.0 16.0 0.00 0.00 0.00 52 1005.6
20260504205335 47 294 7.0 13.0 0.00 0.00 0.00 53 1005.8
20260504204833 48 314 9.0 21.0 0.00 0.00 0.00 52 1005.5
20260504204331 47 304 12.0 17.0 0.00 0.00 0.00 53 1005.5
20260504203830 49 310 10.0 16.0 0.00 0.00 0.00 52 1005.3
20260504203327 48 320 7.0 16.0 0.00 0.00 0.00 52 1005.3
20260504202822 49 277 8.0 23.0 0.00 0.00 0.00 51 1005.3
20260504202320 49 299 11.0 17.0 0.00 0.00 0.00 51 1005.2
20260504201816 49 287 13.0 17.0 0.00 0.00 0.00 49 1005.1
20260504201314 49 291 6.0 15.0 0.00 0.00 0.00 50 1005.3
20260504200811 48 20 11.0 17.0 0.00 0.00 0.00 50 1005.1
20260504200308 49 273 14.0 18.0 0.00 0.00 0.00 48 1005.0
20260504195803 49 275 3.0 11.0 0.00 0.00 0.00 54 1004.7
20260504195300 49 288 11.0 16.0 0.00 0.00 0.00 50 1005.1
20260504194757 49 254 5.0 16.0 0.00 0.00 0.00 54 1004.7
20260504194253 50 240 10.0 19.0 0.00 0.00 0.00 50 1005.0
20260504193749 49 316 10.0 13.0 0.00 0.00 0.00 51 1004.7
20260504193247 48 298 6.0 16.0 0.00 0.00 0.00 54 1005.0
20260504192745 48 285 12.0 19.0 0.00 0.00 0.00 51 1004.9
20260504192243 48 21 9.0 23.0 0.00 0.00 0.00 52 1004.5
20260504191741 48 316 6.0 11.0 0.00 0.00 0.00 52 1004.5
20260504191238 48 287 11.0 18.0 0.00 0.00 0.00 50 1004.5
20260504190733 50 341 10.0 13.0 0.00 0.00 0.00 51 1004.3
20260504190230 50 262 11.0 21.0 0.00 0.00 0.00 51 1004.2
20260504185726 50 266 6.0 10.0 0.00 0.00 0.00 54 1004.1
20260504185223 49 346 10.0 15.0 0.00 0.00 0.00 50 1004.1
20260504184719 49 333 13.0 21.0 0.00 0.00 0.00 50 1004.2
20260504184215 48 271 9.0 14.0 0.00 0.00 0.00 52 1004.1
20260504183711 49 261 5.0 22.0 0.00 0.00 0.00 54 1004.1
20260504183208 50 277 11.0 15.0 0.00 0.00 0.00 51 1004.1
20260504182706 48 291 17.0 19.0 0.00 0.00 0.00 52 1003.9
20260504182204 49 329 7.0 16.0 0.00 0.00 0.00 54 1003.8
20260504181701 49 190 4.0 14.0 0.00 0.00 0.00 54 1003.9
20260504181158 49 286 9.0 15.0 0.00 0.00 0.00 53 1003.6
20260504180657 50 308 9.0 17.0 0.00 0.00 0.00 51 1003.7
20260504180155 48 262 10.0 16.0 0.00 0.00 0.00 55 1003.5
20260504175652 49 302 12.0 21.0 0.00 0.00 0.00 54 1003.4
20260504175149 49 298 15.0 24.0 0.00 0.00 0.00 53 1003.4
20260504174647 50 305 6.0 15.0 0.00 0.00 0.00 55 1003.5
20260504174144 49 346 10.0 15.0 0.00 0.00 0.00 54 1003.6
20260504173641 49 280 9.0 19.0 0.00 0.00 0.00 53 1003.2
20260504173138 50 356 6.0 14.0 0.00 0.00 0.00 55 1003.4
20260504172635 51 292 13.0 18.0 0.00 0.00 0.00 50 1003.0
20260504172131 48 334 10.0 19.0 0.00 0.00 0.00 55 1003.3
20260504171628 48 311 11.0 15.0 0.00 0.00 0.00 56 1003.2
20260504171125 49 322 9.0 19.0 0.00 0.00 0.00 56 1003.1
20260504170621 49 259 3.0 17.0 0.00 0.00 0.00 60 1002.8
20260504170119 50 276 6.0 18.0 0.00 0.00 0.00 56 1003.3
20260504151004 50 273 13.0 16.0 0.00 0.00 0.00 63 1001.7
20260504150502 49 13 4.0 16.0 0.00 0.00 0.00 65 1001.8
20260504140928 50 325 17.0 24.0 0.00 0.00 0.00 59 1001.1
20260504140424 49 285 11.0 18.0 0.00 0.00 0.00 59 1000.9
20260504130349 50 287 7.0 19.0 0.00 0.00 0.00 70 1000.2
20260504120312 48 281 7.0 8.0 0.00 0.00 0.00 72 999.7
20260504110236 49 281 2.0 6.0 0.00 0.00 0.00 69 998.5
20260504100154 51 299 6.0 16.0 0.00 0.00 0.00 66 998.3
20260504090116 58 297 10.0 16.0 0.00 0.00 0.00 54 997.5
20260504081547 61 299 11.0 17.0 0.00 0.00 0.00 44 996.6
20260504081042 60 215 7.0 11.0 0.00 0.00 0.00 45 995.7
20260504080539 61 297 12.0 16.0 0.00 0.00 0.00 44 995.8